User: anonymous   Login
Location: Hickory_Viewmont
(35.7830°N, 81.3170°W)
Time: 07:38:53
(UTC-05:00)
Language:

Okean-O - Orbit

View from above orbital plane
View from above orbital plane
View from above satellite
View from above satellite

Ground track
Ground track

The orbit data is extracted from the following two-line orbital elements,

1 25860U 99039A   15061.87691860  .00001353  00000-0  20477-3 0  9994
2 25860 098.0811 029.8436 0001067 070.2068 319.9212 14.75847532840307
Epoch (UTC): 02 March 2015 21:02:45
Eccentricity: 0.0001067
inclination: 98.0811°
perigee height: 642 km
apogee height: 643 km
right ascension of ascending node: 29.8436°
argument of perigee: 70.2068°
revolutions per day: 14.75847532
mean anomaly at epoch: 319.9212°
orbit number at epoch: 84030

The dashed part of the orbit path shows where the satellite is in the earth's shadow,  

DLR